Shannon, Ireland

8:30 PM IST on August 17, 2017 (GMT +0100)
Shannon

Weather History for EINN - October, 2011

Change the Weather History Date:

Sunday, October 16, 2011

  Actual Average Record
Temperature  
Mean Temperature 52 °F -  
Max Temperature 57 °F 54 °F 64 °F (1997)
Min Temperature 48 °F 43 °F 37 °F (2002)
Degree Days  
Heating Degree Days 12    
Growing Degree Days 2 (Base 50)    
Moisture  
Dew Point 47 °F    
Average Humidity 82    
Maximum Humidity 100    
Minimum Humidity 63    
Precipitation  
Precipitation 0.02 in 0.12 in - ()
Sea Level Pressure  
Sea Level Pressure 30.12 in    
Wind  
Wind Speed 9 mph ()    
Max Wind Speed 21 mph    
Max Gust Speed -    
Visibility 6.6 miles    
Events Rain    
Averages and records for this station are not official NWS values.
T = Trace of Precipitation, MM = Missing Value Source: Averaged Metar Reports

Daily Weather History Graph

Daily Weather History Graph

Search for Another Location

Airport or City:

Trip Planner

Search our weather history database for the weather conditions in past years. The results will help you decide how hot, cold, wet, or windy it might be!

Date:

Astronomy

Oct. 16, 2011 Rise Set
Actual Time 8:02 AM IST 6:39 PM IST
Civil Twilight 7:27 AM IST 7:13 PM IST
Nautical Twilight 6:48 AM IST 7:53 PM IST
Astronomical Twilight 6:08 AM IST 8:33 PM IST
Moon 8:37 PM IST (10/16) 12:44 PM IST (10/16)
Length of Visible Light 11h 46m
Length of Day
10h 36m
Waning Gibbous, 84% of the Moon is Illuminated
Oct 16
Waning Gibbous
Oct 20
Last Quarter
Oct 26
New
Nov 2
First Quarter
Nov 10
Full

Hourly Weather History & Observations

Time (IST) Temp. Dew Point Humidity Pressure Visibility Wind Dir Wind Speed Gust Speed Precip Events Conditions
12:00 AM 50.0 °F 46.4 °F 87% 30.12 in 6.2 mi SE 6.9 mph - N/A   Mostly Cloudy
12:30 AM 48.2 °F 46.4 °F 93% 30.12 in 6.2 mi SSE 5.8 mph - N/A   Scattered Clouds
1:00 AM 49 °F 46 °F 86% 30.13 in 12 mi South 8.9 mph - -   Partly Cloudy
1:00 AM 48.2 °F 46.4 °F 93% 30.12 in 6.2 mi South 8.1 mph - N/A   Scattered Clouds
1:30 AM 50.0 °F 46.4 °F 87% 30.12 in 6.2 mi SSE 8.1 mph - N/A   Mostly Cloudy
2:00 AM 50.0 °F 46.4 °F 87% 30.12 in 6.2 mi SE 6.9 mph - N/A   Mostly Cloudy
2:30 AM 50.0 °F 46.4 °F 87% 30.12 in 6.2 mi SSE 8.1 mph - N/A   Mostly Cloudy
3:00 AM 50.0 °F 46.4 °F 87% 30.12 in 6.2 mi SSE 6.9 mph - N/A   Mostly Cloudy
3:30 AM 50.0 °F 48.2 °F 94% 30.12 in 6.2 mi SSE 6.9 mph - N/A   Mostly Cloudy
4:00 AM 50.0 °F 48.2 °F 94% 30.12 in 6.2 mi South 6.9 mph - N/A   Mostly Cloudy
4:30 AM 50.0 °F 48.2 °F 94% 30.09 in 6.2 mi South 9.2 mph - N/A   Mostly Cloudy
5:00 AM 50.0 °F 50.0 °F 100% 30.12 in 6.2 mi South 6.9 mph - N/A   Mostly Cloudy
5:30 AM 53.6 °F 51.8 °F 94% 30.12 in 6.2 mi SSW 5.8 mph - N/A   Mostly Cloudy
6:00 AM 53.6 °F 50.0 °F 88% 30.12 in 6.2 mi WSW 10.4 mph - N/A   Mostly Cloudy
6:30 AM 53.6 °F 50.0 °F 88% 30.12 in 6.2 mi WSW 6.9 mph - N/A   Light Drizzle
7:00 AM 52 °F 49 °F 85% 30.15 in 12 mi WSW 11.2 mph - - Rain Light Drizzle
7:00 AM 51.8 °F 48.2 °F 88% 30.12 in 6.2 mi WSW 10.4 mph - N/A   Mostly Cloudy
7:30 AM 51.8 °F 48.2 °F 88% 30.15 in 6.2 mi SW 8.1 mph - N/A   Partly Cloudy
8:00 AM 51.8 °F 48.2 °F 88% 30.15 in 6.2 mi SW 9.2 mph - N/A   Partly Cloudy
8:30 AM 51.8 °F 46.4 °F 82% 30.15 in 6.2 mi SSW 9.2 mph - N/A   Partly Cloudy
9:00 AM 51.8 °F 46.4 °F 82% 30.15 in 6.2 mi SSW 8.1 mph - N/A   Partly Cloudy
9:30 AM 51.8 °F 46.4 °F 82% 30.15 in 6.2 mi SSW 10.4 mph - N/A   Partly Cloudy
10:00 AM 51.8 °F 46.4 °F 82% 30.15 in 6.2 mi South 9.2 mph - N/A   Partly Cloudy
10:30 AM 53.6 °F 48.2 °F 82% 30.18 in 6.2 mi SSW 9.2 mph - N/A   Partly Cloudy
11:00 AM 55.4 °F 46.4 °F 72% 30.18 in 6.2 mi SSW 12.7 mph - N/A   Mostly Cloudy
11:30 AM 55.4 °F 48.2 °F 77% 30.15 in 6.2 mi SW 12.7 mph - N/A   Scattered Clouds
12:00 PM 57.2 °F 48.2 °F 72% 30.15 in 6.2 mi SW 15.0 mph - N/A   Mostly Cloudy
12:30 PM 55.4 °F 46.4 °F 72% 30.15 in 6.2 mi SW 13.8 mph - N/A   Mostly Cloudy
1:00 PM 54 °F 49 °F 77% 30.17 in 12 mi WSW 11.2 mph - - Rain Light Rain Showers
1:00 PM 53.6 °F 48.2 °F 82% 30.15 in 6.2 mi WSW 10.4 mph - N/A Rain Light Rain Showers
1:30 PM 55.4 °F 44.6 °F 67% 30.15 in 6.2 mi SSW 16.1 mph - N/A   Mostly Cloudy
2:00 PM 55.4 °F 48.2 °F 77% 30.12 in 6.2 mi SW 15.0 mph - N/A   Mostly Cloudy
2:30 PM 55.4 °F 48.2 °F 77% 30.12 in 6.2 mi SW 11.5 mph - N/A Rain Light Rain Showers
3:00 PM 55.4 °F 48.2 °F 77% 30.12 in 6.2 mi SW 13.8 mph - N/A   Mostly Cloudy
3:30 PM 57.2 °F 46.4 °F 67% 30.12 in 6.2 mi SW 16.1 mph - N/A   Partly Cloudy
4:00 PM 57.2 °F 44.6 °F 63% 30.12 in 6.2 mi SW 20.7 mph - N/A   Mostly Cloudy
4:30 PM 55.4 °F 48.2 °F 77% 30.12 in 6.2 mi SW 16.1 mph - N/A   Partly Cloudy
5:00 PM 55.4 °F 46.4 °F 72% 30.09 in 6.2 mi SSW 13.8 mph - N/A   Partly Cloudy
5:30 PM 55.4 °F 46.4 °F 72% 30.09 in 6.2 mi SW 16.1 mph - N/A   Scattered Clouds
6:00 PM 53.6 °F 46.4 °F 77% 30.09 in 6.2 mi SW 18.4 mph - N/A   Mostly Cloudy
6:30 PM 53.6 °F 46.4 °F 77% 30.09 in 6.2 mi SSW 12.7 mph - N/A   Mostly Cloudy
7:00 PM 53 °F 47 °F 73% 30.10 in 12 mi SSW 13.4 mph - -   Partly Cloudy
7:00 PM 53.6 °F 46.4 °F 77% 30.09 in 6.2 mi SSW 13.8 mph - N/A   Mostly Cloudy
7:30 PM 53.6 °F 46.4 °F 77% 30.09 in 6.2 mi SSW 16.1 mph - N/A   Mostly Cloudy
8:00 PM 51.8 °F 46.4 °F 82% 30.09 in 6.2 mi SSW 13.8 mph - N/A   Mostly Cloudy
8:30 PM 51.8 °F 46.4 °F 82% 30.06 in 6.2 mi SSW 13.8 mph - N/A   Mostly Cloudy
9:00 PM 53.6 °F 46.4 °F 77% 30.06 in 6.2 mi SSW 17.3 mph - N/A   Mostly Cloudy
9:30 PM 51.8 °F 48.2 °F 88% 30.06 in 6.2 mi South 16.1 mph - N/A   Mostly Cloudy
10:00 PM 51.8 °F 48.2 °F 88% 30.06 in 6.2 mi South 12.7 mph - N/A   Mostly Cloudy
10:30 PM 51.8 °F 46.4 °F 82% 30.04 in 6.2 mi South 13.8 mph - N/A   Mostly Cloudy
11:00 PM 51.8 °F 46.4 °F 82% 30.04 in 6.2 mi South 15.0 mph - N/A   Mostly Cloudy
11:30 PM 51.8 °F 46.4 °F 82% 30.04 in 6.2 mi South 13.8 mph - N/A   Mostly Cloudy